Location: Celina Division
(33.3022°N, 96.7580°W)
Time: 05:41:18
(UTC+00:00)

H-2A R/B (2) - Pass Details

Date: 06 July 2022
Orbit: 426 x 34397 km, 28.9° (Epoch: 11 August)

Event Time Altitude Azimuth Distance (km) Brightness Sun altitude
Exits shadow 06:00:10 - 155° (SSE) 20,225 8.7 -33.5°
Reaches altitude 10° 06:28:28 10° 149° (SSE) 24,916 9.2 -34.0°
Maximum altitude 14:01:57 60° 154° (SSE) 12,314 8.7 30.5°
Drops below altitude 10° 14:36:33 10° 84° (E) 6,470 8.0 37.6°
Sets 14:39:16 0° 80° (E) 6,635 7.7 38.2°
